Waarnemingen

Advertentie
Mijn weer
Reims-Prunay, Frankrijk (7072): temperatuur & dauwpunt: 13.04.2019 06:00:00 - 19.04.2019 06:00:00 (CEST)Reims-Prunay, Frankrijk (7072): temperatuur 5cm: 13.04.2019 06:00:00 - 19.04.2019 06:00:00 (CEST)Reims-Prunay, Frankrijk (7072): temperatuur -20cm & temperatuur -100cm: 13.04.2019 06:00:00 - 19.04.2019 06:00:00 (CEST)Reims-Prunay, Frankrijk (7072): windsnelheid & windstoten: 13.04.2019 06:00:00 - 19.04.2019 06:00:00 (CEST)Reims-Prunay, Frankrijk (7072): windrichting: 13.04.2019 06:00:00 - 19.04.2019 06:00:00 (CEST)Reims-Prunay, Frankrijk (7072): luchtdruk: 13.04.2019 06:00:00 - 19.04.2019 06:00:00 (CEST)Reims-Prunay, Frankrijk (7072): zicht: 13.04.2019 06:00:00 - 19.04.2019 06:00:00 (CEST)Reims-Prunay, Frankrijk (7072): Zonneschijnduur: 13.04.2019 06:00:00 - 19.04.2019 06:00:00 (CEST)Reims-Prunay, Frankrijk (7072): neerslag: 13.04.2019 06:00:00 - 19.04.2019 06:00:00 (CEST)
Datum & Tijd tt [°C] td [°C] tt 5cm [°C] tt -20cm [°C] tt -100cm [°C] ff [km/u] ff [kn] fx [km/u] fx [kn] dd ppp [hPa] vv [km] sd [min] rr [mm]
19.04.2019 06:00:00 3,2 1,4 0,4 11,5 9,5 2 1 4 2 ZZO 1023,9 20 0 0,0
19.04.2019 05:00:00 3,7 2,1 1,7 11,6 9,5 0 0 6 3 N 1023,7 20 0 0,0
19.04.2019 04:00:00 4,8 2,7 2,7 11,7 9,5 0 0 8 4 N 1023,2 20 0 0,0
19.04.2019 03:00:00 5,6 3,4 3,6 11,9 9,5 6 3 7 4 NNW 1023,0 20 0 0,0
19.04.2019 02:00:00 6,9 3,7 3,0 12,0 9,5 0 0 6 3 N 1022,9 20 0 0,0
19.04.2019 01:00:00 10,2 4,8 3,6 12,1 9,5 4 2 10 5 OZO 1022,7 20 0 0,0
19.04.2019 00:00:00 10,9 5,2 6,2 12,3 9,5 7 4 13 7 OZO 1022,4 20 0 0,0
18.04.2019 23:00:00 14,1 5,7 6,6 12,3 9,5 0 0 11 6 N 1021,8 20 0 0,0
18.04.2019 22:00:00 13,7 6,3 10,5 12,3 9,5 6 4 22 12 O 1021,5 20 0 0,0
18.04.2019 21:00:00 16,9 6,4 15,1 12,3 9,4 17 9 22 12 ONO 1021,0 20 11 0,0
18.04.2019 20:00:00 17,8 7,2 16,1 12,2 9,4 15 8 20 11 ONO 1020,4 20 44 0,0
18.04.2019 19:00:00 21,4 6,1 21,9 12,0 9,5 14 7 23 13 O 1019,8 20 60 0,0
18.04.2019 18:00:00 22,3 3,9 24,0 11,7 9,4 15 8 28 15 OZO 1019,6 20 60 0,0
18.04.2019 17:00:00 22,5 4,5 25,0 11,4 9,4 17 9 31 17 OZO 1019,7 20 60 0,0
18.04.2019 16:00:00 22,5 3,6 25,3 11,1 9,4 21 11 34 18 O 1019,7 20 60 0,0
18.04.2019 15:00:00 22,0 3,1 25,0 10,7 9,4 21 11 35 19 OZO 1019,8 20 60 0,0
18.04.2019 14:00:00 21,4 4,9 24,2 10,5 9,5 21 11 32 17 OZO 1020,0 20 60 0,0
18.04.2019 13:00:00 19,9 5,5 22,6 10,3 9,4 19 10 27 15 O 1020,3 20 60 0,0
18.04.2019 12:00:00 18,4 4,9 20,5 10,2 9,4 21 11 29 15 OZO 1020,8 20 60 0,0
18.04.2019 11:00:00 16,8 6,0 18,1 10,1 9,5 19 10 27 15 OZO 1021,3 20 60 0,0
18.04.2019 10:00:00 14,5 7,3 16,3 10,2 9,4 16 8 20 11 O 1021,4 18 60 0,0
18.04.2019 09:00:00 11,9 7,2 10,8 10,3 9,4 4 2 8 4 O 1021,4 18 60 0,0
18.04.2019 08:00:00 7,0 6,4 1,7 10,4 9,4 2 1 6 4 NNO 1021,3 6 49 0,0
18.04.2019 07:00:00 4,7 4,1 0,4 10,6 9,5 0 0 2 1 N 1020,9 7 0 0,0
18.04.2019 06:00:00 5,5 4,8 0,7 10,7 9,4 0 0 4 2 N 1020,6 9 0 0,0
18.04.2019 05:00:00 6,0 5,4 1,8 10,8 9,4 3 2 8 4 NO 1020,6 14 0 0,0
18.04.2019 04:00:00 4,5 3,5 2,4 11,0 9,5 0 0 6 3 N 1020,8 13 0 0,0
18.04.2019 03:00:00 5,5 4,6 2,8 11,1 9,4 5 3 7 4 N 1020,7 13 0 0,0
18.04.2019 02:00:00 5,8 4,3 2,1 11,3 9,4 3 2 6 3 NNO 1020,5 15 0 0,0
18.04.2019 01:00:00 8,3 5,8 3,1 11,4 9,4 0 0 4 2 N 1020,4 20 0 0,0
18.04.2019 00:00:00 8,5 6,3 3,6 11,5 9,4 0 0 5 3 N 1020,2 19 0 0,0
17.04.2019 23:00:00 10,2 6,9 6,6 11,5 9,4 3 2 9 5 OZO 1020,4 20 0 0,0
17.04.2019 22:00:00 11,5 7,8 8,3 11,6 9,4 5 3 18 10 OZO 1020,3 20 0 0,0
17.04.2019 21:00:00 13,3 9,0 11,6 11,5 9,4 12 7 18 10 NNO 1019,6 20 9 0,0
17.04.2019 20:00:00 14,8 9,2 13,6 11,4 9,4 9 5 21 12 NO 1019,2 20 31 0,0
17.04.2019 19:00:00 16,6 8,5 16,7 11,3 9,4 11 6 18 10 ONO 1019,2 20 54 0,0
17.04.2019 18:00:00 17,4 8,0 16,5 11,0 9,4 13 7 19 11 O 1019,3 20 49 0,0
17.04.2019 17:00:00 16,6 7,2 16,9 10,8 9,4 13 7 26 14 OZO 1019,6 20 38 0,0
17.04.2019 16:00:00 16,1 8,8 17,4 10,5 9,5 8 4 18 10 O 1020,3 20 12 0,0
17.04.2019 15:00:00 15,4 8,8 16,9 10,2 9,4 11 6 22 12 O 1020,5 20 8 0,0
17.04.2019 14:00:00 15,9 9,3 18,5 9,9 9,4 12 6 21 11 Z 1020,5 19 57 0,0
17.04.2019 13:00:00 14,0 10,2 16,3 9,7 9,4 15 8 23 12 OZO 1021,0 11 58 0,0
17.04.2019 12:00:00 12,8 10,0 15,3 9,6 9,4 14 8 19 11 ZO 1021,2 8 0 0,0
17.04.2019 11:00:00 11,7 10,3 12,3 9,6 9,4 7 4 12 6 ZO 1021,3 6 0 0,0
17.04.2019 10:00:00 10,0 9,5 9,9 9,6 9,4 6 4 9 5 OZO 1021,2 4,9 0 0,0
17.04.2019 09:00:00 9,3 8,8 9,3 9,6 9,5 5 3 12 7 OZO 1021,0 3,5 0 0,0
17.04.2019 08:00:00 9,2 8,7 8,6 9,6 9,4 8 4 11 6 O 1020,6 1,7 0 0,0
17.04.2019 07:00:00 9,0 8,5 8,6 9,6 9,4 6 4 8 4 O 1020,2 1,8 0 0,0
17.04.2019 06:00:00 8,8 8,2 8,5 9,6 9,5 5 3 11 6 O 1019,7 1,4 0 0,0
17.04.2019 05:00:00 8,8 8,2 8,3 9,6 9,4 9 5 11 6 OZO 1019,4 1,7 0 0,0
17.04.2019 04:00:00 8,9 8,3 8,1 9,7 9,5 4 2 6 3 NNW 1019,6 2,4 0 0,0
17.04.2019 03:00:00 8,6 7,8 8,1 9,7 9,5 3 2 5 3 N 1019,5 2,2 0 0,0
17.04.2019 02:00:00 8,7 7,8 8,2 9,7 9,4 0 0 5 3 N 1019,5 2,5 0 0,0
17.04.2019 01:00:00 8,9 7,8 8,2 9,7 9,4 2 1 7 4 O 1019,4 2,7 0 0,0
17.04.2019 00:00:00 9,5 8,6 7,4 9,8 9,5 7 4 10 5 W 1019,2 4,6 0 0,0
16.04.2019 23:00:00 8,5 7,7 7,4 9,7 9,4 0 0 7 4 N 1019,0 3,8 0 0,0
16.04.2019 22:00:00 8,7 7,6 6,8 9,8 9,5 0 0 3 2 N 1018,7 2,8 0 0,0
16.04.2019 21:00:00 9,4 8,0 8,2 9,7 9,4 0 0 6 3 N 1018,1 6 0 0,0
16.04.2019 20:00:00 10,0 8,3 9,3 9,6 9,4 0 0 14 8 N 1017,3 8 0 0,0
16.04.2019 19:00:00 10,2 8,5 9,9 9,6 9,5 5 3 12 6 W 1017,1 20 0 0,2
16.04.2019 18:00:00 10,9 9,0 10,5 9,5 9,4 8 5 14 8 WZW 1016,7 8 0 0,4
16.04.2019 17:00:00 11,3 9,4 11,0 9,4 9,5 6 3 13 7 ZZW 1016,3 20 0 0,6
16.04.2019 16:00:00 11,2 8,9 10,9 9,3 9,4 7 4 14 8 ZW 1016,2 16 0 0,4
16.04.2019 15:00:00 11,3 8,9 10,7 9,2 9,4 8 5 18 10 ZZW 1016,0 20 0 0,0
16.04.2019 14:00:00 10,7 8,8 10,6 9,1 9,5 14 8 22 12 Z 1015,8 16 0 0,0
16.04.2019 13:00:00 10,8 8,7 10,7 9,0 9,5 11 6 22 12 Z 1015,7 19 0 0,4
16.04.2019 12:00:00 11,0 8,6 11,0 8,9 9,5 14 8 31 17 Z 1015,5 20 0 0,0
16.04.2019 11:00:00 11,9 7,6 13,4 8,9 9,5 22 12 32 17 ZW 1014,9 19 0 0,0
16.04.2019 10:00:00 11,4 6,5 9,7 8,9 9,4 17 9 29 16 Z 1014,6 19 42 0,0
16.04.2019 09:00:00 7,7 5,3 6,6 9,0 9,4 5 3 12 7 O 1014,3 10 19 0,0
16.04.2019 08:00:00 5,6 4,1 2,4 9,1 9,5 11 6 15 8 OZO 1014,1 7 46 0,0
16.04.2019 07:00:00 3,8 2,5 0,2 9,2 9,5 10 5 13 7 OZO 1013,8 7 0 0,0
16.04.2019 06:00:00 4,5 2,7 1,8 9,3 9,5 7 4 13 7 OZO 1013,4 6 0 0,0
16.04.2019 05:00:00 5,0 3,3 2,6 9,4 9,5 10 6 13 7 O 1013,6 6 0 0,0
16.04.2019 04:00:00 5,3 3,0 3,6 9,5 9,5 10 6 19 10 O 1013,7 7 0 0,0
16.04.2019 03:00:00 6,4 4,6 1,8 9,6 9,5 18 10 22 12 OZO 1013,9 9 0 0,0
16.04.2019 02:00:00 4,7 2,4 2,5 9,7 9,5 9 5 14 7 O 1014,8 7 0 0,0
16.04.2019 01:00:00 5,5 2,7 2,5 9,8 9,5 9 5 11 6 OZO 1015,1 10 0 0,0
16.04.2019 00:00:00 6,4 3,4 3,0 9,9 9,5 9 5 14 8 OZO 1014,9 12 0 0,0
15.04.2019 23:00:00 8,1 3,9 2,0 10,0 9,5 12 6 15 8 ZO 1014,8 16 0 0,0
15.04.2019 22:00:00 7,8 4,2 3,3 10,0 9,5 9 5 15 8 OZO 1014,9 19 0 0,0
15.04.2019 21:00:00 9,0 4,4 6,6 9,9 9,5 13 7 16 8 O 1015,2 20 0 0,0
15.04.2019 20:00:00 13,2 4,3 11,0 9,8 9,5 12 7 35 19 OZO 1014,8 20 28 0,0
15.04.2019 19:00:00 16,2 3,9 16,7 9,6 9,5 21 11 37 20 ZO 1014,9 20 60 0,0
15.04.2019 18:00:00 17,1 4,4 18,4 9,4 9,5 26 14 44 24 OZO 1015,3 20 60 0,0
15.04.2019 17:00:00 17,1 3,4 19,2 9,0 9,5 24 13 40 22 OZO 1015,8 20 60 0,0
15.04.2019 16:00:00 16,4 3,4 19,3 8,7 9,5 26 14 40 22 OZO 1016,9 20 60 0,0
15.04.2019 15:00:00 15,4 1,9 19,2 8,4 9,5 21 11 44 24 ZO 1018,1 20 60 0,0
15.04.2019 14:00:00 14,8 1,3 17,9 8,1 9,5 19 10 32 17 O 1019,2 19 60 0,0
15.04.2019 13:00:00 12,4 1,4 16,0 7,9 9,5 16 9 31 17 OZO 1020,8 19 60 0,0
15.04.2019 12:00:00 10,7 1,5 14,2 7,8 9,5 17 9 26 14 OZO 1022,1 20 60 0,0
15.04.2019 11:00:00 9,2 1,6 11,8 7,8 9,5 17 9 25 14 OZO 1022,8 20 60 0,0
15.04.2019 10:00:00 6,6 1,7 8,0 7,9 9,5 9 5 17 9 OZO 1023,6 15 60 0,0
15.04.2019 09:00:00 3,8 0,5 1,3 8,0 9,5 3 2 5 3 ZO 1023,9 11 60 0,0
15.04.2019 08:00:00 -1,6 -2,9 -5,7 8,2 9,6 3 2 5 3 ZO 1024,3 7 44 0,0
15.04.2019 07:00:00 -2,1 -3,4 -5,9 8,4 9,6 0 0 3 2 N 1024,4 9 0 0,0
15.04.2019 06:00:00 -3,2 -4,2 -6,4 8,5 9,5 0 0 3 2 N 1024,6 6 0 0,0
15.04.2019 05:00:00 -3,3 -4,4 -7,0 8,7 9,6 0 0 4 2 N 1024,8 4,9 0 0,0
15.04.2019 04:00:00 -2,9 -4,0 -5,5 8,8 9,6 3 2 5 3 N 1024,8 4,4 0 0,0
15.04.2019 03:00:00 -2,6 -3,9 -4,7 8,9 9,6 0 0 5 3 N 1024,8 4,8 0 0,0
15.04.2019 02:00:00 -1,2 -2,5 -4,4 9,0 9,5 4 2 7 4 NNW 1025,1 7 0 0,0
15.04.2019 01:00:00 -0,5 -2,2 -4,2 9,2 9,6 3 1 6 4 NW 1025,1 8 0 0,0
15.04.2019 00:00:00 0,2 -2,3 -2,8 9,3 9,6 3 1 6 3 WNW 1025,1 10 0 0,0
14.04.2019 23:00:00 1,3 -0,9 -2,5 9,4 9,6 3 2 6 3 N 1024,9 14 0 0,0
14.04.2019 22:00:00 1,4 -1,3 -1,4 9,4 9,5 2 1 10 5 WZW 1024,6 15 0 0,0
14.04.2019 21:00:00 3,1 -1,5 0,4 9,4 9,5 8 4 13 7 NNO 1023,9 14 9 0,0
14.04.2019 20:00:00 7,1 -2,4 5,7 9,3 9,6 7 4 12 7 NO 1023,4 20 42 0,0
14.04.2019 19:00:00 8,4 -1,7 9,0 9,2 9,6 4 2 13 7 N 1023,9 20 32 0,0
14.04.2019 18:00:00 8,1 -1,7 8,2 9,0 9,5 7 4 31 17 ONO 1023,7 20 15 0,0
14.04.2019 17:00:00 8,7 -2,6 9,0 8,9 9,5 14 7 24 13 O 1022,5 20 32 0,0
14.04.2019 16:00:00 7,2 -1,8 8,2 8,7 9,5 10 6 28 15 ONO 1023,1 20 6 0,0
14.04.2019 15:00:00 7,5 -1,0 9,6 8,4 9,5 13 7 25 14 O 1023,2 15 0 0,0
14.04.2019 14:00:00 7,2 -2,3 9,8 8,2 9,5 15 8 31 17 ONO 1023,0 18 34 0,0
14.04.2019 13:00:00 7,3 -1,2 9,1 8,1 9,6 10 5 20 11 NNO 1023,1 15 31 0,0
14.04.2019 12:00:00 5,5 -1,4 10,7 8,0 9,5 8 5 18 10 NO 1023,5 13 52 0,0
14.04.2019 11:00:00 4,7 -1,1 9,2 8,0 9,6 9 5 21 11 NO 1023,4 11 60 0,0
14.04.2019 10:00:00 2,6 -1,4 6,8 8,1 9,5 5 3 13 7 NNO 1023,4 9 60 0,0
14.04.2019 09:00:00 0,4 -2,0 -0,5 8,3 9,6 6 3 14 7 N 1023,2 9 60 0,0
14.04.2019 08:00:00 -1,7 -3,6 -7,4 8,5 9,6 6 4 10 6 WNW 1023,2 13 42 0,0
14.04.2019 07:00:00 -3,9 -5,9 -8,2 8,6 9,6 4 2 14 8 NNW 1023,1 11 0 0,0
14.04.2019 06:00:00 -2,9 -4,8 -8,0 8,8 9,6 0 0 9 5 N 1022,8 16 0 0,0
14.04.2019 05:00:00 -2,7 -5,0 -7,4 9,0 9,6 3 2 12 6 W 1023,1 19 0 0,0
14.04.2019 04:00:00 -3,2 -5,2 -6,4 9,1 9,6 3 1 11 6 N 1022,8 17 0 0,0
14.04.2019 03:00:00 -2,2 -5,4 -5,3 9,3 9,6 3 2 9 5 WZW 1022,7 20 0 0,0
14.04.2019 02:00:00 -0,3 -4,2 -3,9 9,4 9,6 9 5 16 9 W 1023,2 20 0 0,0
14.04.2019 01:00:00 -0,4 -4,1 -4,3 9,6 9,6 5 3 11 6 - 1023,2 10 0 0,0
14.04.2019 00:00:00 -1,8 -4,6 -3,5 9,7 9,6 9 5 14 8 NNO 1023,3 20 0 0,0
13.04.2019 23:00:00 1,6 -3,5 -1,3 9,8 9,6 11 6 14 7 NNO 1023,3 20 0 0,0
13.04.2019 22:00:00 2,6 -4,2 0,3 9,9 9,6 11 6 18 10 NNO 1023,5 20 0 0,0
13.04.2019 21:00:00 3,9 -4,8 1,5 9,9 9,6 11 6 25 14 NNO 1023,2 20 8 0,0
13.04.2019 20:00:00 6,8 -7,3 7,4 9,8 9,5 17 9 31 17 NNO 1022,5 20 55 0,0
13.04.2019 19:00:00 7,2 -6,9 7,4 9,8 9,6 18 10 36 19 N 1022,2 20 46 0,0
13.04.2019 18:00:00 8,4 -7,0 8,3 9,7 9,5 20 11 36 19 NNO 1022,4 20 45 0,0
13.04.2019 17:00:00 7,2 -6,2 8,2 9,5 9,5 19 10 33 18 NNO 1022,5 20 20 0,0
13.04.2019 16:00:00 8,2 -7,5 8,5 9,4 9,6 18 10 35 19 NNO 1022,8 20 30 0,0
13.04.2019 15:00:00 7,6 -4,8 8,7 9,1 9,5 17 9 31 17 NNO 1023,2 20 35 0,0
13.04.2019 14:00:00 6,4 -3,3 8,3 9,0 9,5 25 14 42 23 NNO 1023,5 20 22 0,0
13.04.2019 13:00:00 6,7 -5,3 9,6 8,8 9,5 18 10 36 20 NO 1023,7 20 40 0,0
13.04.2019 12:00:00 7,4 -1,8 11,9 8,8 9,5 16 9 35 19 NNO 1023,9 20 60 0,0
13.04.2019 11:00:00 5,9 -2,5 10,8 8,8 9,5 18 10 31 17 NO 1024,1 20 60 0,0
13.04.2019 10:00:00 4,3 -1,5 7,2 9,0 9,5 16 9 26 14 NNO 1024,3 17 60 0,0
13.04.2019 09:00:00 1,9 -1,7 -0,6 9,1 9,6 16 9 23 12 NNO 1024,3 14 21 0,0
13.04.2019 08:00:00 -0,4 -2,6 -3,4 9,3 9,6 11 6 16 9 NNO 1024,3 9 1 0,0
13.04.2019 07:00:00 -1,5 -3,7 -3,4 9,4 9,5 6 3 15 8 W 1024,1 8 0 0,0
13.04.2019 06:00:00 -0,8 -3,3 -2,4 9,6 9,5 8 4 20 11 N 1023,8 8 0 0,0

tt = temperatuur
td = dauwpunt
tt 5cm = temperatuur 5cm
tt -20cm = temperatuur -20cm
tt -100cm = temperatuur -100cm
ff = windsnelheid
fx = windstoten
dd = windrichting
ppp = luchtdruk
vv = zicht
sd = Zonneschijnduur
rr = neerslag

Weerstations in de omgeving